This is the latest recevied weather packets stored in our database for station/object K1BES. If no packets are shown the sender has not sent any weather packets the latest 10 day(s).
| Time | Temp. | Humidity | Pressure | Rain* | Wind** | Luminosity | Snow |
|---|---|---|---|---|---|---|---|
| 1788031821 | 34.44° C | 63% | 1018.5 hPa | 0 mm | - | 661 W/m² | - |
| 1788031521 | 35° C | 61% | 1018.4 hPa | 0 mm | - | 526 W/m² | - |
| 1788031215 | 35.56° C | 61% | 1018.6 hPa | 0 mm | - | 844 W/m² | - |
| 1788030914 | 35.56° C | 59% | 1018.5 hPa | 0 mm | - | 1020 W/m² | - |
| 1788030614 | 35° C | 60% | 1018.1 hPa | 0 mm | - | 977 W/m² | - |
| 1788030314 | 35° C | 62% | 1018 hPa | 0 mm | - | 955 W/m² | - |
| 1788030009 | 35° C | 60% | 1018.4 hPa | 0 mm | - | 944 W/m² | - |
| 1788029704 | 34.44° C | 61% | 1018.3 hPa | 0 mm | - | 941 W/m² | - |
| 1788029399 | 35° C | 61% | 1018 hPa | 0 mm | - | 947 W/m² | - |
| 1788029097 | 35° C | 60% | 1018.3 hPa | 0 mm | - | 951 W/m² | - |
| 1788028792 | 35° C | 61% | 1018.1 hPa | 0 mm | - | 955 W/m² | - |
| 1788028487 | 35° C | 58% | 1018.3 hPa | 0 mm | - | 964 W/m² | - |
| 1788028183 | 35° C | 59% | 1018.2 hPa | 0 mm | - | 972 W/m² | - |
| 1788027882 | 35° C | 59% | 1018.3 hPa | 0 mm | - | 980 W/m² | - |
| 1788027578 | 35° C | 58% | 1018.6 hPa | 0 mm | - | 984 W/m² | - |
| 1788027277 | 35° C | 58% | 1018.8 hPa | 0 mm | - | 987 W/m² | - |
| 1788026977 | 35° C | 57% | 1019.3 hPa | 0 mm | - | 997 W/m² | - |
| 1788026672 | 35° C | 60% | 1019.2 hPa | 0 mm | - | 996 W/m² | - |
| 1788026368 | 35° C | 60% | 1019.4 hPa | 0 mm | - | 998 W/m² | - |
| 1788026063 | 35° C | 60% | 1019.5 hPa | 0 mm | - | 1004 W/m² | - |
| 1788025761 | 35° C | 60% | 1019.4 hPa | 0 mm | - | 1008 W/m² | - |
| 1788025456 | 35° C | 60% | 1019.3 hPa | 0 mm | - | 1008 W/m² | - |
| 1788025152 | 35° C | 58% | 1019.6 hPa | 0 mm | - | 1008 W/m² | - |
| 1788024851 | 35.56° C | 60% | 1019.4 hPa | 0 mm | - | 1010 W/m² | - |
| 1788024548 | 35° C | 60% | 1019.5 hPa | 0 mm | - | 1008 W/m² | - |
* Rain latest hour (hover to see other rain measurements)
** Current wind speed in m/s (hover to see current wind gust speed)